Location: Saint Louis
(38.6272°N, 90.1978°W)
Time: 10:21:44
(UTC-05:00)

ISS - Pass Details

Date: 12 September 2013
Orbit: 401 x 404 km, 51.6° (Epoch: 27 July)

Event Time Altitude Azimuth Distance (km) Brightness Sun altitude
Exits shadow 06:05:02 - 211° (SSW) 2,244 0.0 -7.6°
Reaches altitude 10° 06:06:57 10° 204° (SSW) 1,493 -0.8 -7.2°
Maximum altitude 06:10:04 37° 135° (SE) 670 -1.9 -6.6°
Drops below altitude 10° 06:13:11 10° 67° (ENE) 1,489 1.1 -6.0°
Sets 06:15:21 0° 58° (ENE) 2,350 2.0 -5.6°
